Location: Unspecified
(0.0000°N, 0.0000°E)
Time: 05:17:31
(UTC+00:00)

S-56A Canister/Altair - Pass Details

Date: 01 June 2024
Orbit: 637 x 2489 km, 38.9° (Epoch: 21 June)

Event Time Altitude Azimuth Distance (km) Brightness Sun altitude
Rises 22:36:46 0° 218° (SW) 4,615 - -60.2°
Reaches altitude 10° 22:39:32 10° 214° (SW) 3,858 - -60.7°
Maximum altitude 22:50:04 60° 136° (SE) 2,326 - -62.3°
Drops below altitude 10° 23:04:17 10° 60° (ENE) 5,098 - -64.2°
Exits shadow 23:05:59 - 58° (ENE) 5,523 11.9 -64.4°
Sets 23:08:30 0° 57° (ENE) 6,152 12.2 -64.7°
